﻿_id,日時,10分間移動積算雨量(mm),1時間移動積算雨量(mm),日雨量(mm),累計雨量(mm)
1,2023-06-12T00:00:00,0,0,3.5,3.5
2,2023-06-12T00:01:00,0,0,0,3.5
3,2023-06-12T00:02:00,0,0,0,3.5
4,2023-06-12T00:03:00,0,0,0,3.5
5,2023-06-12T00:04:00,0,0,0,3.5
6,2023-06-12T00:05:00,0,0,0,3.5
7,2023-06-12T00:06:00,0,0,0,3.5
8,2023-06-12T00:07:00,0,0,0,3.5
9,2023-06-12T00:08:00,0,0,0,3.5
10,2023-06-12T00:09:00,0,0,0,3.5
11,2023-06-12T00:10:00,0,0,0,3.5
12,2023-06-12T00:11:00,0,0,0,3.5
13,2023-06-12T00:12:00,0,0,0,3.5
14,2023-06-12T00:13:00,0,0,0,3.5
15,2023-06-12T00:14:00,0,0,0,3.5
16,2023-06-12T00:15:00,0,0,0,3.5
17,2023-06-12T00:16:00,0,0,0,3.5
18,2023-06-12T00:17:00,0,0,0,3.5
19,2023-06-12T00:18:00,0,0,0,3.5
20,2023-06-12T00:19:00,0,0,0,3.5
21,2023-06-12T00:20:00,0,0,0,3.5
22,2023-06-12T00:21:00,0,0,0,3.5
23,2023-06-12T00:22:00,0,0,0,3.5
24,2023-06-12T00:23:00,0,0,0,3.5
25,2023-06-12T00:24:00,0,0,0,3.5
26,2023-06-12T00:25:00,0,0,0,3.5
27,2023-06-12T00:26:00,0,0,0,3.5
28,2023-06-12T00:27:00,0,0,0,3.5
29,2023-06-12T00:28:00,0,0,0,3.5
30,2023-06-12T00:29:00,0,0,0,3.5
31,2023-06-12T00:30:00,0,0,0,3.5
32,2023-06-12T00:31:00,0,0,0,3.5
33,2023-06-12T00:32:00,0,0,0,3.5
34,2023-06-12T00:33:00,0,0,0,3.5
35,2023-06-12T00:34:00,0,0,0,3.5
36,2023-06-12T00:35:00,0,0,0,3.5
37,2023-06-12T00:36:00,0,0,0,3.5
38,2023-06-12T00:37:00,0,0,0,3.5
39,2023-06-12T00:38:00,0,0,0,3.5
40,2023-06-12T00:39:00,0,0,0,3.5
41,2023-06-12T00:40:00,0,0,0,3.5
42,2023-06-12T00:41:00,0,0,0,3.5
43,2023-06-12T00:42:00,0,0,0,3.5
44,2023-06-12T00:43:00,0,0,0,3.5
45,2023-06-12T00:44:00,0,0,0,3.5
46,2023-06-12T00:45:00,0,0,0,3.5
47,2023-06-12T00:46:00,0,0,0,3.5
48,2023-06-12T00:47:00,0,0,0,3.5
49,2023-06-12T00:48:00,0,0,0,3.5
50,2023-06-12T00:49:00,0,0,0,3.5
51,2023-06-12T00:50:00,0,0,0,3.5
52,2023-06-12T00:51:00,0,0,0,3.5
53,2023-06-12T00:52:00,0,0,0,3.5
54,2023-06-12T00:53:00,0,0,0,3.5
55,2023-06-12T00:54:00,0,0,0,3.5
56,2023-06-12T00:55:00,0,0,0,3.5
57,2023-06-12T00:56:00,0,0,0,3.5
58,2023-06-12T00:57:00,0,0,0,3.5
59,2023-06-12T00:58:00,0,0,0,3.5
60,2023-06-12T00:59:00,0,0,0,3.5
61,2023-06-12T01:00:00,0,0,0,3.5
62,2023-06-12T01:01:00,0,0,0,3.5
63,2023-06-12T01:02:00,0,0,0,3.5
64,2023-06-12T01:03:00,0,0,0,3.5
65,2023-06-12T01:04:00,0,0,0,3.5
66,2023-06-12T01:05:00,0,0,0,3.5
67,2023-06-12T01:06:00,0,0,0,3.5
68,2023-06-12T01:07:00,0,0,0,3.5
69,2023-06-12T01:08:00,0,0,0,3.5
70,2023-06-12T01:09:00,0,0,0,3.5
71,2023-06-12T01:10:00,0,0,0,3.5
72,2023-06-12T01:11:00,0,0,0,3.5
73,2023-06-12T01:12:00,0,0,0,3.5
74,2023-06-12T01:13:00,0,0,0,3.5
75,2023-06-12T01:14:00,0,0,0,3.5
76,2023-06-12T01:15:00,0,0,0,3.5
77,2023-06-12T01:16:00,0,0,0,3.5
78,2023-06-12T01:17:00,0,0,0,3.5
79,2023-06-12T01:18:00,0,0,0,3.5
80,2023-06-12T01:19:00,0,0,0,3.5
81,2023-06-12T01:20:00,0.5,0.5,0.5,4
82,2023-06-12T01:21:00,1,1,1,4.5
83,2023-06-12T01:22:00,1,1,1,4.5
84,2023-06-12T01:23:00,2,2,2,5.5
85,2023-06-12T01:24:00,2.5,2.5,2.5,6
86,2023-06-12T01:25:00,2.5,2.5,2.5,6
87,2023-06-12T01:26:00,3,3,3,6.5
88,2023-06-12T01:27:00,3,3,3,6.5
89,2023-06-12T01:28:00,3,3,3,6.5
90,2023-06-12T01:29:00,3,3,3,6.5
91,2023-06-12T01:30:00,2.5,3,3,6.5
92,2023-06-12T01:31:00,2,3,3,6.5
93,2023-06-12T01:32:00,2,3,3,6.5
94,2023-06-12T01:33:00,1,3,3,6.5
95,2023-06-12T01:34:00,0.5,3,3,6.5
96,2023-06-12T01:35:00,0.5,3,3,6.5
97,2023-06-12T01:36:00,0,3,3,6.5
98,2023-06-12T01:37:00,0,3,3,6.5
99,2023-06-12T01:38:00,0,3,3,6.5
100,2023-06-12T01:39:00,0,3,3,6.5
101,2023-06-12T01:40:00,0,3,3,6.5
102,2023-06-12T01:41:00,0,3,3,6.5
103,2023-06-12T01:42:00,0,3,3,6.5
104,2023-06-12T01:43:00,0,3,3,6.5
105,2023-06-12T01:44:00,0,3,3,6.5
106,2023-06-12T01:45:00,0,3,3,6.5
107,2023-06-12T01:46:00,0,3,3,6.5
108,2023-06-12T01:47:00,0,3,3,6.5
109,2023-06-12T01:48:00,0,3,3,6.5
110,2023-06-12T01:49:00,0,3,3,6.5
111,2023-06-12T01:50:00,0,3,3,6.5
112,2023-06-12T01:51:00,0,3,3,6.5
113,2023-06-12T01:52:00,0,3,3,6.5
114,2023-06-12T01:53:00,0,3,3,6.5
115,2023-06-12T01:54:00,0,3,3,6.5
116,2023-06-12T01:55:00,0,3,3,6.5
117,2023-06-12T01:56:00,0,3,3,6.5
118,2023-06-12T01:57:00,0,3,3,6.5
119,2023-06-12T01:58:00,0,3,3,6.5
120,2023-06-12T01:59:00,0,3,3,6.5
121,2023-06-12T02:00:00,0,3,3,6.5
122,2023-06-12T02:01:00,0.5,3.5,3.5,7
123,2023-06-12T02:02:00,0.5,3.5,3.5,7
124,2023-06-12T02:03:00,0.5,3.5,3.5,7
125,2023-06-12T02:04:00,0.5,3.5,3.5,7
126,2023-06-12T02:05:00,0.5,3.5,3.5,7
127,2023-06-12T02:06:00,0.5,3.5,3.5,7
128,2023-06-12T02:07:00,0.5,3.5,3.5,7
129,2023-06-12T02:08:00,0.5,3.5,3.5,7
130,2023-06-12T02:09:00,0.5,3.5,3.5,7
131,2023-06-12T02:10:00,0.5,3.5,3.5,7
132,2023-06-12T02:11:00,0,3.5,3.5,7
133,2023-06-12T02:12:00,0,3.5,3.5,7
134,2023-06-12T02:13:00,0,3.5,3.5,7
135,2023-06-12T02:14:00,0,3.5,3.5,7
136,2023-06-12T02:15:00,0,3.5,3.5,7
137,2023-06-12T02:16:00,0,3.5,3.5,7
138,2023-06-12T02:17:00,0,3.5,3.5,7
139,2023-06-12T02:18:00,0,3.5,3.5,7
140,2023-06-12T02:19:00,0,3.5,3.5,7
141,2023-06-12T02:20:00,0,3,3.5,7
142,2023-06-12T02:21:00,0,2.5,3.5,7
143,2023-06-12T02:22:00,0,2.5,3.5,7
144,2023-06-12T02:23:00,0,1.5,3.5,7
145,2023-06-12T02:24:00,0,1,3.5,7
146,2023-06-12T02:25:00,0,1,3.5,7
147,2023-06-12T02:26:00,0,0.5,3.5,7
148,2023-06-12T02:27:00,0,0.5,3.5,7
149,2023-06-12T02:28:00,0,0.5,3.5,7
150,2023-06-12T02:29:00,0,0.5,3.5,7
151,2023-06-12T02:30:00,0,0.5,3.5,7
152,2023-06-12T02:31:00,0,0.5,3.5,7
153,2023-06-12T02:32:00,0,0.5,3.5,7
154,2023-06-12T02:33:00,0,0.5,3.5,7
155,2023-06-12T02:34:00,0,0.5,3.5,7
156,2023-06-12T02:35:00,0,0.5,3.5,7
157,2023-06-12T02:36:00,0,0.5,3.5,7
158,2023-06-12T02:37:00,0,0.5,3.5,7
159,2023-06-12T02:38:00,0,0.5,3.5,7
160,2023-06-12T02:39:00,0,0.5,3.5,7
161,2023-06-12T02:40:00,0,0.5,3.5,7
162,2023-06-12T02:41:00,0,0.5,3.5,7
163,2023-06-12T02:42:00,0,0.5,3.5,7
164,2023-06-12T02:43:00,0,0.5,3.5,7
165,2023-06-12T02:44:00,0,0.5,3.5,7
166,2023-06-12T02:45:00,0,0.5,3.5,7
167,2023-06-12T02:46:00,0,0.5,3.5,7
168,2023-06-12T02:47:00,0,0.5,3.5,7
169,2023-06-12T02:48:00,0,0.5,3.5,7
170,2023-06-12T02:49:00,0,0.5,3.5,7
171,2023-06-12T02:50:00,0,0.5,3.5,7
172,2023-06-12T02:51:00,0,0.5,3.5,7
173,2023-06-12T02:52:00,0,0.5,3.5,7
174,2023-06-12T02:53:00,0,0.5,3.5,7
175,2023-06-12T02:54:00,0,0.5,3.5,7
176,2023-06-12T02:55:00,0,0.5,3.5,7
177,2023-06-12T02:56:00,0,0.5,3.5,7
178,2023-06-12T02:57:00,0,0.5,3.5,7
179,2023-06-12T02:58:00,0,0.5,3.5,7
180,2023-06-12T02:59:00,0,0.5,3.5,7
181,2023-06-12T03:00:00,0,0.5,3.5,7
182,2023-06-12T03:01:00,0,0,3.5,7
183,2023-06-12T03:02:00,0,0,3.5,7
184,2023-06-12T03:03:00,0,0,3.5,7
185,2023-06-12T03:04:00,0,0,3.5,7
186,2023-06-12T03:05:00,0,0,3.5,7
187,2023-06-12T03:06:00,0,0,3.5,7
188,2023-06-12T03:07:00,0,0,3.5,7
189,2023-06-12T03:08:00,0,0,3.5,7
190,2023-06-12T03:09:00,0,0,3.5,7
191,2023-06-12T03:10:00,0,0,3.5,7
192,2023-06-12T03:11:00,0,0,3.5,7
193,2023-06-12T03:12:00,0,0,3.5,7
194,2023-06-12T03:13:00,0,0,3.5,7
195,2023-06-12T03:14:00,0,0,3.5,7
196,2023-06-12T03:15:00,0,0,3.5,7
197,2023-06-12T03:16:00,0,0,3.5,7
198,2023-06-12T03:17:00,0,0,3.5,7
199,2023-06-12T03:18:00,0,0,3.5,7
200,2023-06-12T03:19:00,0,0,3.5,7
201,2023-06-12T03:20:00,0,0,3.5,7
202,2023-06-12T03:21:00,0,0,3.5,7
203,2023-06-12T03:22:00,0,0,3.5,7
204,2023-06-12T03:23:00,0,0,3.5,7
205,2023-06-12T03:24:00,0,0,3.5,7
206,2023-06-12T03:25:00,0,0,3.5,7
207,2023-06-12T03:26:00,0,0,3.5,7
208,2023-06-12T03:27:00,0,0,3.5,7
209,2023-06-12T03:28:00,0,0,3.5,7
210,2023-06-12T03:29:00,0,0,3.5,7
211,2023-06-12T03:30:00,0,0,3.5,7
212,2023-06-12T03:31:00,0,0,3.5,7
213,2023-06-12T03:32:00,0,0,3.5,7
214,2023-06-12T03:33:00,0,0,3.5,7
215,2023-06-12T03:34:00,0,0,3.5,7
216,2023-06-12T03:35:00,0,0,3.5,7
217,2023-06-12T03:36:00,0,0,3.5,7
218,2023-06-12T03:37:00,0,0,3.5,7
219,2023-06-12T03:38:00,0,0,3.5,7
220,2023-06-12T03:39:00,0,0,3.5,7
221,2023-06-12T03:40:00,0,0,3.5,7
222,2023-06-12T03:41:00,0,0,3.5,7
223,2023-06-12T03:42:00,0,0,3.5,7
224,2023-06-12T03:43:00,0,0,3.5,7
225,2023-06-12T03:44:00,0,0,3.5,7
226,2023-06-12T03:45:00,0,0,3.5,7
227,2023-06-12T03:46:00,0,0,3.5,7
228,2023-06-12T03:47:00,0,0,3.5,7
229,2023-06-12T03:48:00,0,0,3.5,7
230,2023-06-12T03:49:00,0,0,3.5,7
231,2023-06-12T03:50:00,0,0,3.5,7
232,2023-06-12T03:51:00,0,0,3.5,7
233,2023-06-12T03:52:00,0,0,3.5,7
234,2023-06-12T03:53:00,0,0,3.5,7
235,2023-06-12T03:54:00,0,0,3.5,7
236,2023-06-12T03:55:00,0,0,3.5,7
237,2023-06-12T03:56:00,0,0,3.5,7
238,2023-06-12T03:57:00,0,0,3.5,7
239,2023-06-12T03:58:00,0,0,3.5,7
240,2023-06-12T03:59:00,0,0,3.5,7
241,2023-06-12T04:00:00,0,0,3.5,7
242,2023-06-12T04:01:00,0,0,3.5,7
243,2023-06-12T04:02:00,0,0,3.5,7
244,2023-06-12T04:03:00,0,0,3.5,7
245,2023-06-12T04:04:00,0,0,3.5,7
246,2023-06-12T04:05:00,0,0,3.5,7
247,2023-06-12T04:06:00,0,0,3.5,7
248,2023-06-12T04:07:00,0,0,3.5,7
249,2023-06-12T04:08:00,0,0,3.5,7
250,2023-06-12T04:09:00,0,0,3.5,7
